Location: Unspecified
(0.0000°N, 0.0000°E)
Time: 06:08:20
(UTC+00:00)

Vanguard 3 - All Passes

Search period start: 04 December 2016 00:00
Search period end: 14 December 2016 00:00
Orbit: 507 x 3267 km, 33.4° (Epoch: 03 December)

Date Brightness Start Highest point End Pass type
(mag) Time Alt. Az. Time Alt. Az. Time Alt. Az.
04 Dec - 01:09:13 10° SW 01:17:24 68° SE 01:32:14 10° ENE visible
04 Dec - 03:21:34 10° W 03:32:39 47° NNW 03:49:59 10° NE visible
04 Dec - 05:39:56 10° WNW 05:52:13 23° NNW 06:06:29 10° NNE daylight
04 Dec - 08:04:03 10° NW 08:15:26 17° N 08:25:49 10° NE daylight
04 Dec - 10:23:30 10° NNW 10:36:58 26° NNE 10:46:35 10° ENE daylight
04 Dec - 12:39:59 10° NW 12:53:53 59° NNE 13:01:35 10° ESE daylight
04 Dec - 14:58:10 10° WNW 15:06:33 33° SW 15:11:47 10° SSE daylight
04 Dec - 23:57:05 10° SSW 00:03:25 36° SE 00:13:55 10° ENE visible
05 Dec - 02:07:24 10° WSW 02:16:40 67° NNW 02:33:04 10° NE visible
05 Dec - 04:22:36 10° WNW 04:34:09 30° NNW 04:49:45 10° NNE visible
05 Dec - 06:44:38 10° NW 06:56:02 18° N 07:07:46 10° NNE daylight
05 Dec - 09:06:14 10° NNW 09:19:12 21° NNE 09:29:44 10° NE daylight
05 Dec - 11:23:15 10° NW 11:38:20 41° NNE 11:47:35 10° E daylight
05 Dec - 13:40:28 10° WNW 13:52:58 70° SW 13:59:46 10° SE daylight
05 Dec - 22:46:29 10° S 22:49:53 15° SE 22:54:11 10° ESE night (unlit)
06 Dec - 00:54:14 10° SW 01:01:47 80° SE 01:15:47 10° ENE visible
06 Dec - 03:06:58 10° W 03:17:08 39° NNW 03:33:00 10° NE visible
06 Dec - 05:25:46 10° NW 05:36:57 21° NNW 05:50:04 10° NNE visible
06 Dec - 07:48:23 10° NNW 08:00:22 18° N 08:11:26 10° NE daylight
06 Dec - 10:06:28 10° NNW 10:21:41 31° NNE 10:32:24 10° ENE daylight
06 Dec - 12:23:13 10° NW 12:38:28 72° NNE 12:46:51 10° ESE daylight
06 Dec - 14:42:32 10° W 14:51:08 29° SW 14:56:36 10° SSE daylight
06 Dec - 23:41:57 10° SSW 23:47:55 42° SE 23:58:03 10° ENE night (unlit)
07 Dec - 01:52:40 10° WSW 02:01:11 56° NNW 02:16:12 10° NE visible
07 Dec - 04:08:23 10° WNW 04:18:48 25° NNW 04:32:49 10° NNE visible
07 Dec - 06:30:00 10° NW 06:40:57 17° N 06:52:24 10° NE daylight
07 Dec - 08:49:36 10° NNW 09:03:57 24° NNE 09:15:38 10° ENE daylight
07 Dec - 11:06:14 10° NW 11:22:53 49° NNE 11:33:01 10° E daylight
07 Dec - 13:24:10 10° WNW 13:37:25 59° SW 13:44:47 10° SE daylight
07 Dec - 22:30:58 10° S 22:34:34 17° SE 22:39:20 10° E night (unlit)
08 Dec - 00:39:21 10° SW 00:46:18 86° NW 00:59:16 10° NE visible
08 Dec - 02:52:35 10° W 03:01:47 33° NNW 03:15:56 10° NE visible
08 Dec - 05:11:43 10° NW 05:21:48 18° N 05:33:41 10° NNE visible
08 Dec - 07:32:32 10° NNW 07:45:13 20° N 07:57:06 10° NE daylight
08 Dec - 09:49:30 10° NW 10:06:13 36° NNE 10:17:59 10° E daylight
08 Dec - 12:06:28 10° NW 12:22:53 84° NE 12:31:59 10° ESE daylight
08 Dec - 14:26:59 10° W 14:35:39 25° SW 14:41:22 10° S daylight
08 Dec - 23:26:55 10° SW 23:32:28 50° SE 23:42:08 10° ENE night (unlit)
09 Dec - 01:38:05 10° W 01:45:51 45° NNW 01:59:17 10° NE visible
09 Dec - 03:54:23 10° WNW 04:03:37 21° NNW 04:15:50 10° NNE visible
09 Dec - 06:15:13 10° NNW 06:25:54 17° N 06:37:14 10° NE daylight
09 Dec - 08:32:57 10° NNW 08:48:32 27° NNE 09:01:21 10° ENE daylight
09 Dec - 10:49:18 10° NW 11:07:15 58° NNE 11:18:15 10° ESE daylight
09 Dec - 13:07:53 10° WNW 13:21:46 51° SW 13:29:41 10° SE daylight
09 Dec - 22:15:34 10° S 22:19:16 20° SE 22:24:20 10° E night (unlit)
10 Dec - 00:24:36 10° WSW 00:30:59 70° NNW 00:42:45 10° NE night (unlit)
10 Dec - 02:38:24 10° WNW 02:46:36 26° NNW 02:58:48 10° NNE visible
10 Dec - 04:57:44 10° NW 05:06:46 17° N 05:17:22 10° NNE visible
10 Dec - 07:16:35 10° NNW 07:29:57 21° NNE 07:42:43 10° ENE daylight
10 Dec - 09:32:36 10° NW 09:50:33 42° NNE 10:03:21 10° E daylight
10 Dec - 11:49:47 10° NW 12:07:07 84° SW 12:16:58 10° SE daylight
10 Dec - 14:11:30 10° W 14:20:09 22° SW 14:26:03 10° S daylight
10 Dec - 23:11:57 10° SW 23:17:09 62° SE 23:26:12 10° ENE night (unlit)
11 Dec - 01:23:40 10° W 01:30:42 35° NNW 01:42:20 10° NE visible
11 Dec - 03:40:39 10° NW 03:48:34 18° N 03:58:46 10° NNE visible
11 Dec - 06:00:15 10° NNW 06:10:49 17° N 06:22:14 10° NE daylight
11 Dec - 08:16:22 10° NNW 08:32:55 31° NNE 08:46:50 10° E daylight
11 Dec - 10:32:26 10° NW 10:51:25 68° NNE 11:03:19 10° ESE daylight
11 Dec - 12:51:41 10° WNW 13:06:01 45° SW 13:14:31 10° SSE daylight
11 Dec - 22:00:16 10° SSW 22:04:00 24° SE 22:09:13 10° E night (unlit)
12 Dec - 00:09:58 10° WSW 00:15:49 54° NNW 00:26:14 10° NE night (unlit)
12 Dec - 02:24:30 10° WNW 02:31:34 21° NNW 02:41:34 10° NNE visible
12 Dec - 04:43:47 10° NNW 04:51:49 15° N 05:01:12 10° NNE visible
12 Dec - 07:00:33 10° NNW 07:14:32 24° NNE 07:28:14 10° ENE daylight
12 Dec - 09:15:48 10° NW 09:34:42 49° NNE 09:48:30 10° E daylight
12 Dec - 11:33:10 10° WNW 11:51:11 74° SW 12:01:50 10° SE daylight
12 Dec - 13:56:06 10° W 14:04:38 20° SW 14:10:41 10° S daylight
12 Dec - 22:57:05 10° SW 23:01:54 80° SE 23:10:15 10° ENE night (unlit)
13 Dec - 01:09:29 10° WNW 01:15:41 27° NNW 01:25:20 10° NNE visible
13 Dec - 03:27:13 10° NW 03:33:39 15° N 03:41:37 10° NNE visible
13 Dec - 05:45:04 10° NNW 05:55:40 18° NNE 06:07:20 10° NE daylight
13 Dec - 07:59:50 10° NNW 08:17:08 36° NNE 08:32:06 10° E daylight
13 Dec - 10:15:41 10° NW 10:35:24 77° NE 10:48:13 10° ESE daylight
13 Dec - 12:35:34 10° WNW 12:50:11 40° SW 12:59:14 10° SSE daylight
13 Dec - 21:45:03 10° SSW 21:48:46 30° SE 21:54:03 10° E night (unlit)
